• In Uzbekistan
  • List of Countries
  • For 7 days
  • Water Temperature
  • Satellite Maps
  • Weather Map
  • Weather Widgets
  • user-avatar
    Login

    Hourly Weather Florianópolis

    Today, 18 April, Thursday

    Time Temperature Precipitation Wind Pressure Humidity
    00:00 +21°C° 0 mm 5 mps 759 mmHg 82%
    01:00 +20°C° 0 mm 5 mps 759 mmHg 83%
    02:00 +20°C° 0 mm 4 mps 759 mmHg 83%
    03:00 +20°C° 0 mm 4 mps 759 mmHg 84%
    04:00 +20°C° 0 mm 4 mps 759 mmHg 85%
    05:00 +19°C° 0 mm 4 mps 759 mmHg 85%
    06:00 +19°C° 0 mm 3 mps 759 mmHg 86%
    07:00 +21°C° 0 mm 3 mps 759 mmHg 79%
    08:00 +24°C° 0 mm 3 mps 760 mmHg 72%
    09:00 +26°C° 0 mm 3 mps 760 mmHg 65%
    10:00 +28°C° 0 mm 3 mps 760 mmHg 59%
    11:00 +29°C° 0 mm 3 mps 760 mmHg 53%
    12:00 +31°C° 0 mm 3 mps 760 mmHg 47%
    13:00 +31°C° 0 mm 3 mps 759 mmHg 49%
    14:00 +31°C° 0 mm 3 mps 759 mmHg 52%
    15:00 +30°C° 0 mm 4 mps 758 mmHg 54%
    16:00 +29°C° 0 mm 4 mps 758 mmHg 64%
    17:00 +27°C° 0 mm 4 mps 759 mmHg 73%
    18:00 +25°C° 0 mm 4 mps 759 mmHg 83%
    19:00 +25°C° 0 mm 3 mps 759 mmHg 87%
    20:00 +24°C° 0 mm 3 mps 759 mmHg 90%
    21:00 +22°C° 0 mm 3 mps 760 mmHg 94%
    22:00 +23°C° 0 mm 2 mps 760 mmHg 95%
    23:00 +23°C° 0 mm 2 mps 760 mmHg 96%

    Tomorrow, 19 April, Friday

    Time Temperature Precipitation Wind Pressure Humidity
    00:00 +21°C° 0 mm 2 mps 760 mmHg 97%
    01:00 +22°C° 0 mm 1 mps 760 mmHg 97%
    02:00 +22°C° 0 mm 1 mps 760 mmHg 97%
    03:00 +22°C° 0 mm 1 mps 759 mmHg 96%
    04:00 +22°C° 0 mm 1 mps 759 mmHg 96%
    05:00 +21°C° 0 mm 1 mps 759 mmHg 97%
    06:00 +20°C° 0 mm 2 mps 759 mmHg 97%
    07:00 +23°C° 0 mm 2 mps 760 mmHg 90%
    08:00 +24°C° 0 mm 2 mps 760 mmHg 83%
    09:00 +25°C° 0 mm 2 mps 760 mmHg 75%
    10:00 +28°C° 0 mm 2 mps 760 mmHg 66%
    11:00 +30°C° 0 mm 3 mps 759 mmHg 56%
    12:00 +33°C° 0 mm 3 mps 759 mmHg 46%
    13:00 +33°C° 0 mm 3 mps 758 mmHg 44%
    14:00 +34°C° 0 mm 3 mps 758 mmHg 41%
    15:00 +34°C° 0 mm 3 mps 757 mmHg 39%
    16:00 +31°C° 0 mm 3 mps 757 mmHg 54%
    17:00 +28°C° 0 mm 3 mps 757 mmHg 68%
    18:00 +26°C° 0 mm 2 mps 758 mmHg 83%
    19:00 +25°C° 0 mm 2 mps 758 mmHg 88%
    20:00 +24°C° 0 mm 2 mps 758 mmHg 93%
    21:00 +23°C° 0 mm 1 mps 759 mmHg 98%
    22:00 +23°C° 0 mm 1 mps 759 mmHg 97%
    23:00 +22°C° 0 mm 1 mps 759 mmHg 96%

    Day after tomorrow, 20 April, Saturday

    Time Temperature Precipitation Wind Pressure Humidity
    00:00 +22°C° 0 mm 1 mps 759 mmHg 95%
    01:00 +22°C° 0 mm 1 mps 759 mmHg 93%
    02:00 +22°C° 0 mm 1 mps 759 mmHg 91%
    03:00 +22°C° 0 mm 1 mps 758 mmHg 89%
    04:00 +22°C° 0 mm 1 mps 759 mmHg 88%
    05:00 +21°C° 0 mm 2 mps 759 mmHg 88%
    06:00 +21°C° 0 mm 2 mps 759 mmHg 88%
    07:00 +24°C° 0 mm 2 mps 759 mmHg 80%
    08:00 +25°C° 0 mm 2 mps 760 mmHg 72%
    09:00 +27°C° 0 mm 2 mps 760 mmHg 65%
    10:00 +29°C° 0 mm 2 mps 760 mmHg 59%
    11:00 +30°C° 0 mm 3 mps 760 mmHg 54%
    12:00 +31°C° 0 mm 3 mps 760 mmHg 49%
    13:00 +31°C° 0 mm 3 mps 759 mmHg 54%
    14:00 +30°C° 0 mm 4 mps 759 mmHg 59%
    15:00 +29°C° 0 mm 4 mps 759 mmHg 64%
    16:00 +27°C° 0 mm 4 mps 759 mmHg 70%
    17:00 +26°C° 0 mm 4 mps 759 mmHg 76%
    18:00 +23°C° 0 mm 4 mps 760 mmHg 83%
    19:00 +23°C° 0 mm 4 mps 760 mmHg 85%
    20:00 +22°C° 0 mm 3 mps 761 mmHg 88%
    21:00 +22°C° 0 mm 3 mps 761 mmHg 90%
    22:00 +21°C° 0 mm 2 mps 761 mmHg 92%
    23:00 +21°C° 0 mm 2 mps 761 mmHg 93%

    21 April, Sunday

    Time Temperature Precipitation Wind Pressure Humidity
    00:00 +22°C° 0 mm 1 mps 761 mmHg 94%
    01:00 +22°C° 0 mm 1 mps 760 mmHg 95%
    02:00 +21°C° 0 mm 1 mps 760 mmHg 96%
    03:00 +21°C° 0 mm 1 mps 760 mmHg 97%
    04:00 +21°C° 0 mm 1 mps 760 mmHg 97%
    05:00 +21°C° 0 mm 1 mps 760 mmHg 97%
    06:00 +21°C° 0 mm 1 mps 760 mmHg 97%
    07:00 +22°C° 0 mm 1 mps 760 mmHg 92%
    08:00 +23°C° 0 mm 1 mps 760 mmHg 87%
    09:00 +24°C° 0 mm 1 mps 760 mmHg 83%
    10:00 +25°C° 0 mm 1 mps 760 mmHg 81%
    11:00 +26°C° 0 mm 2 mps 759 mmHg 79%
    12:00 +26°C° 0 mm 3 mps 759 mmHg 77%
    13:00 +26°C° 0.1 mm 3 mps 758 mmHg 79%
    14:00 +26°C° 0.1 mm 3 mps 757 mmHg 80%
    15:00 +26°C° 0.1 mm 3 mps 756 mmHg 82%
    16:00 +26°C° 0.1 mm 3 mps 756 mmHg 86%
    17:00 +25°C° 0.1 mm 3 mps 756 mmHg 90%
    18:00 +25°C° 0.1 mm 3 mps 756 mmHg 94%
    19:00 +25°C° 0.5 mm 3 mps 757 mmHg 96%
    20:00 +24°C° 0.5 mm 3 mps 757 mmHg 97%
    21:00 +24°C° 0.5 mm 3 mps 757 mmHg 99%
    22:00 +24°C° 1.3 mm 3 mps 757 mmHg 99%
    23:00 +24°C° 1.3 mm 3 mps 756 mmHg 99%

    22 April, Monday

    Time Temperature Precipitation Wind Pressure Humidity
    00:00 +24°C° 1.3 mm 3 mps 756 mmHg 99%
    01:00 +24°C° 0.9 mm 3 mps 756 mmHg 99%
    02:00 +22°C° 0.9 mm 3 mps 756 mmHg 98%
    03:00 +22°C° 0.9 mm 3 mps 756 mmHg 98%
    04:00 +22°C° 0.5 mm 4 mps 756 mmHg 98%
    05:00 +21°C° 0.5 mm 4 mps 756 mmHg 98%
    06:00 +21°C° 0.5 mm 5 mps 757 mmHg 98%
    07:00 +21°C° 0.4 mm 5 mps 757 mmHg 98%
    08:00 +21°C° 0.4 mm 5 mps 758 mmHg 98%
    09:00 +21°C° 0.4 mm 5 mps 758 mmHg 98%
    10:00 +21°C° 1.7 mm 5 mps 759 mmHg 98%
    11:00 +21°C° 1.7 mm 5 mps 759 mmHg 98%
    12:00 +21°C° 1.7 mm 4 mps 759 mmHg 98%
    13:00 +21°C° 3.6 mm 4 mps 759 mmHg 98%
    14:00 +21°C° 3.6 mm 4 mps 759 mmHg 98%
    15:00 +21°C° 3.6 mm 4 mps 758 mmHg 98%
    16:00 +21°C° 1.3 mm 4 mps 759 mmHg 98%
    17:00 +20°C° 1.3 mm 4 mps 759 mmHg 98%
    18:00 +20°C° 1.3 mm 4 mps 759 mmHg 98%
    19:00 +20°C° 1.9 mm 4 mps 760 mmHg 98%
    20:00 +20°C° 1.9 mm 4 mps 760 mmHg 99%
    21:00 +20°C° 1.9 mm 4 mps 761 mmHg 99%
    22:00 +20°C° 2.6 mm 5 mps 761 mmHg 98%
    23:00 +20°C° 2.6 mm 6 mps 761 mmHg 98%

    23 April, Tuesday

    Time Temperature Precipitation Wind Pressure Humidity
    00:00 +20°C° 2.6 mm 7 mps 761 mmHg 98%
    01:00 +18°C° 4 mm 7 mps 761 mmHg 98%
    02:00 +19°C° 4 mm 6 mps 761 mmHg 98%
    03:00 +19°C° 4 mm 6 mps 761 mmHg 98%
    04:00 +19°C° 1.6 mm 5 mps 761 mmHg 98%
    05:00 +19°C° 1.6 mm 5 mps 762 mmHg 98%
    06:00 +18°C° 1.6 mm 4 mps 762 mmHg 98%
    07:00 +19°C° 0.2 mm 4 mps 763 mmHg 97%
    08:00 +19°C° 0.2 mm 4 mps 763 mmHg 97%
    09:00 +19°C° 0.2 mm 3 mps 764 mmHg 96%
    10:00 +19°C° 0.1 mm 4 mps 764 mmHg 93%
    11:00 +20°C° 0.1 mm 4 mps 764 mmHg 89%
    12:00 +21°C° 0.1 mm 4 mps 764 mmHg 86%
    13:00 +21°C° 0.2 mm 4 mps 764 mmHg 86%
    14:00 +21°C° 0.2 mm 4 mps 764 mmHg 87%
    15:00 +21°C° 0.2 mm 4 mps 763 mmHg 87%
    16:00 +20°C° 0.2 mm 4 mps 764 mmHg 90%
    17:00 +20°C° 0.2 mm 3 mps 764 mmHg 92%
    18:00 +20°C° 0.2 mm 3 mps 764 mmHg 95%
    19:00 +20°C° 0.3 mm 3 mps 765 mmHg 96%
    20:00 +20°C° 0.3 mm 3 mps 765 mmHg 96%
    21:00 +20°C° 0.3 mm 3 mps 765 mmHg 97%
    22:00 +20°C° 0.1 mm 3 mps 765 mmHg 97%
    23:00 +19°C° 0.1 mm 3 mps 765 mmHg 97%
    Show more